WB4FAY-4 Weather Reports


time (UTC)temp
C
wind
direction
speed
KPH
gust
KPH
rain 1hr
cm
rain 24hr
cm
rain mn
cm
humidity
%
barometer
mb
20260509225017 22 0 0.0 0.0 0.00 0.00 0.00 77 1012.5
20260509224518 22 0 0.0 0.0 0.00 0.00 0.00 76 1012.4
20260509224017 22 0 0.0 0.0 0.00 0.00 0.00 76 1012.4
20260509223517 22 0 0.0 0.0 0.00 0.00 0.00 75 1012.4
20260509223017 22 0 0.0 0.0 0.00 0.00 0.00 75 1012.4
20260509222517 22 0 0.0 0.0 0.00 0.00 0.00 75 1012.2
20260509222017 22 0 0.0 0.0 0.00 0.00 0.00 74 1012.3
20260509221517 22 0 0.0 0.0 0.00 0.00 0.00 74 1012.2
20260509221018 22 0 0.0 0.0 0.00 0.00 0.00 74 1012.1
20260509220517 23 189 0.0 3.2 0.00 0.00 0.00 73 1012.3
20260509220017 23 0 0.0 0.0 0.00 0.00 0.00 74 1012.4
20260509215518 23 82 0.0 3.2 0.00 0.00 0.00 72 1012.1
20260509215017 23 92 0.0 4.8 0.00 0.00 0.00 72 1012.1
20260509214517 23 268 1.6 4.8 0.00 0.00 0.00 72 1012.2
20260509214017 23 268 0.0 3.2 0.00 0.00 0.00 73 1012.3
20260509213517 23 195 3.2 4.8 0.00 0.00 0.00 72 1012.2
20260509213017 23 195 1.6 6.4 0.00 0.00 0.00 70 1012.2
20260509212518 23 192 3.2 6.4 0.00 0.00 0.00 69 1012.0
20260509212017 23 186 1.6 3.2 0.00 0.00 0.00 69 1012.0
20260509211517 24 0 0.0 0.0 0.00 0.00 0.00 68 1011.8
20260509211017 24 196 0.0 8.0 0.00 0.00 0.00 67 1012.0
20260509210517 23 195 8.0 3.2 0.00 0.00 0.00 67 1012.0
20260509210017 23 215 1.6 1.6 0.00 0.00 0.00 67 1012.0
20260509205517 23 226 0.0 3.2 0.00 0.00 0.00 66 1012.0
20260509205017 23 212 0.0 1.6 0.00 0.00 0.00 67 1011.6
20260509204517 23 270 0.0 1.6 0.00 0.00 0.00 67 1011.8
20260509204017 23 219 0.0 1.6 0.00 0.00 0.00 66 1012.0
20260509203518 23 196 0.0 1.6 0.00 0.00 0.00 66 1012.0
20260509203017 23 213 1.6 3.2 0.00 0.00 0.00 67 1012.1
20260509202517 23 212 3.2 3.2 0.00 0.00 0.00 66 1012.1
20260509202017 23 230 0.0 4.8 0.00 0.00 0.00 66 1012.1
20260509201517 23 220 0.0 4.8 0.00 0.00 0.00 65 1012.0
20260509201017 23 0 0.0 0.0 0.00 0.00 0.00 66 1012.0
20260509200517 23 0 0.0 0.0 0.00 0.00 0.00 66 1012.0
20260509200022 23 219 0.0 1.6 0.00 0.00 0.00 65 1012.1
20260509195517 24 0 0.0 0.0 0.00 0.00 0.00 65 1012.1
20260509195017 23 182 0.0 4.8 0.00 0.00 0.00 65 1012.1
20260509194517 23 195 1.6 6.4 0.00 0.00 0.00 65 1012.3
20260509194017 23 196 3.2 4.8 0.00 0.00 0.00 66 1012.4
20260509193517 23 232 4.8 4.8 0.00 0.00 0.00 68 1012.4
20260509193017 23 230 0.0 3.2 0.00 0.00 0.00 68 1012.3
20260509192518 23 224 1.6 3.2 0.00 0.00 0.00 68 1012.3
20260509192018 23 353 0.0 4.8 0.00 0.00 0.00 67 1012.5
20260509191517 23 298 1.6 3.2 0.00 0.00 0.00 67 1012.5
20260509191018 23 82 1.6 4.8 0.00 0.00 0.00 70 1012.6
20260509190517 23 27 3.2 6.4 0.00 0.00 0.00 69 1012.5
20260509190017 23 333 1.6 8.0 0.00 0.00 0.00 71 1012.6
20260509185517 23 340 6.4 8.0 0.00 0.00 0.00 73 1012.6
20260509185017 22 13 3.2 3.2 0.00 0.00 0.00 73 1012.6
20260509184517 22 24 3.2 6.4 0.00 0.00 0.00 73 1012.7
20260509184017 22 174 1.6 8.0 0.00 0.00 0.00 74 1012.9
20260509183517 22 291 4.8 6.4 0.00 0.00 0.00 75 1013.0
20260509183017 22 336 3.2 6.4 0.00 0.00 0.00 76 1013.0
20260509182518 22 353 3.2 3.2 0.00 0.00 0.00 77 1013.1
20260509182018 21 344 0.0 4.8 0.00 0.00 0.00 77 1013.2
20260509181517 21 349 1.6 6.4 0.00 0.00 0.00 77 1013.4
20260509181018 21 349 3.2 6.4 0.00 0.00 0.00 77 1013.5
20260509180517 21 350 3.2 6.4 0.00 0.00 0.00 78 1013.5
20260509180017 21 347 3.2 4.8 0.00 0.00 0.00 77 1013.5
20260509175518 21 354 3.2 8.0 0.00 0.00 0.00 78 1013.6
20260509175017 21 350 3.2 6.4 0.00 0.00 0.00 78 1013.6
20260509174517 21 277 3.2 6.4 0.00 0.00 0.00 80 1013.7
20260509174017 21 270 4.8 8.0 0.00 0.00 0.00 80 1013.8
20260509173517 20 274 1.6 8.0 0.00 0.00 0.00 80 1013.8
20260509173018 20 281 3.2 8.0 0.00 0.00 0.00 79 1013.9
20260509172517 21 313 3.2 3.2 0.00 0.00 0.00 81 1013.8
20260509172018 20 306 1.6 3.2 0.00 0.00 0.00 81 1013.7
20260509171518 21 272 0.0 4.8 0.00 0.00 0.00 81 1013.8
20260509171018 20 188 1.6 6.4 0.00 0.00 0.00 81 1013.8
20260509170518 20 234 3.2 6.4 0.00 0.00 0.00 82 1013.8
20260509170017 20 196 1.6 4.8 0.00 0.00 0.00 82 1013.8
20260509165518 20 0 4.8 0.0 0.00 0.00 0.00 83 1013.7
20260509165018 20 296 0.0 3.2 0.00 0.00 0.00 83 1013.7
20260509164517 20 257 1.6 3.2 0.00 0.00 0.00 82 1013.8
20260509164018 20 295 0.0 4.8 0.00 0.00 0.00 82 1013.8
20260509163518 20 243 1.6 6.4 0.00 0.00 0.00 83 1014.1
20260509163017 20 289 3.2 4.8 0.00 0.00 0.00 87 1014.1
20260509162517 20 264 1.6 3.2 0.00 0.00 0.00 87 1014.2
20260509162018 19 343 3.2 6.4 0.00 0.00 0.00 89 1014.1
20260509161517 19 232 0.0 3.2 0.00 0.00 0.00 90 1014.1
20260509161017 18 168 0.0 4.8 0.00 0.00 0.00 91 1014.1
20260509160517 18 325 0.0 3.2 0.00 0.00 0.00 92 1014.1
20260509160018 18 186 1.6 6.4 0.00 0.00 0.00 92 1014.1
20260509155517 18 353 3.2 4.8 0.00 0.00 0.00 93 1014.2
20260509155018 18 263 1.6 4.8 0.00 0.00 0.00 93 1014.2
20260509154518 18 230 1.6 3.2 0.00 0.00 0.00 94 1014.2
20260509154017 18 196 1.6 3.2 0.00 0.00 0.00 94 1014.2
20260509153517 18 260 0.0 3.2 0.00 0.00 0.00 95 1014.3
20260509153017 18 124 0.0 1.6 0.00 0.00 0.00 95 1014.4
20260509152517 18 219 1.6 4.8 0.00 0.00 0.00 95 1014.4
20260509152018 17 103 0.0 3.2 0.00 0.00 0.00 95 1014.5
20260509151517 17 230 1.6 3.2 0.00 0.00 0.00 95 1014.3
20260509151017 17 182 0.0 4.8 0.00 0.00 0.00 95 1014.3
20260509150517 17 0 0.0 0.0 0.00 0.00 0.00 95 1014.2
20260509150017 17 243 0.0 1.6 0.00 0.00 0.00 96 1014.2
20260509145517 17 246 0.0 3.2 0.00 0.00 0.00 95 1014.3
20260509145017 17 246 1.6 3.2 0.00 0.00 0.00 96 1014.2
20260509144517 17 278 0.0 3.2 0.00 0.00 0.00 95 1014.3
20260509144017 17 354 3.2 4.8 0.00 0.00 0.00 95 1014.3
20260509143518 17 301 3.2 3.2 0.00 0.00 0.00 95 1014.4
20260509143017 17 206 0.0 3.2 0.00 0.00 0.00 96 1014.3
20260509142518 17 234 1.6 3.2 0.00 0.00 0.00 96 1014.2
20260509142017 17 226 1.6 3.2 0.00 0.00 0.00 96 1014.1
20260509141517 17 192 0.0 4.8 0.00 0.00 0.00 96 1014.3
20260509141017 17 192 3.2 4.8 0.00 0.00 0.00 96 1014.3
20260509140517 17 236 1.6 6.4 0.00 0.00 0.00 96 1014.1
20260509140017 17 223 1.6 6.4 0.00 0.00 0.00 96 1014.3
20260509135517 17 227 1.6 4.8 0.00 0.00 0.00 96 1014.3
20260509135017 17 223 4.8 6.4 0.00 0.00 0.00 96 1014.3
20260509134517 17 227 3.2 4.8 0.00 0.00 0.00 96 1014.4
20260509134017 17 232 0.0 1.6 0.00 0.00 0.00 96 1014.3
20260509133517 17 0 0.0 0.0 0.00 0.00 0.00 96 1014.1
20260509133017 17 247 0.0 3.2 0.00 0.00 0.00 96 1014.1
20260509132517 17 200 0.0 3.2 0.00 0.00 0.00 96 1013.9
20260509132017 17 0 0.0 0.0 0.00 0.00 0.00 96 1013.7
20260509131518 17 0 0.0 0.0 0.00 0.00 0.00 96 1013.7
20260509131017 17 0 0.0 0.0 0.00 0.00 0.00 96 1013.6
20260509130517 17 0 0.0 0.0 0.00 0.00 0.00 97 1013.5
20260509130018 17 0 0.0 0.0 0.00 0.00 0.00 97 1013.5
20260509125517 17 0 0.0 0.0 0.00 0.00 0.00 97 1013.4
20260509125017 17 0 0.0 0.0 0.00 0.00 0.00 97 1013.2
20260509124517 17 0 0.0 0.0 0.00 0.00 0.00 97 1013.1
20260509124017 17 0 0.0 0.0 0.00 0.00 0.00 97 1013.2
20260509123517 17 0 0.0 0.0 0.00 0.00 0.00 97 1013.4
20260509123017 17 0 0.0 0.0 0.00 0.00 0.00 97 1013.5
20260509122517 16 0 0.0 0.0 0.00 0.00 0.00 97 1013.4
20260509122017 17 0 0.0 0.0 0.00 0.00 0.00 97 1013.3
20260509121517 16 0 0.0 0.0 0.00 0.00 0.00 97 1013.2
20260509121017 17 0 0.0 0.0 0.00 0.00 0.00 97 1013.2
20260509120517 16 0 0.0 0.0 0.00 0.00 0.00 97 1013.1
20260509120017 16 0 0.0 0.0 0.00 0.00 0.00 97 1013.1
20260509115518 16 0 0.0 0.0 0.00 0.00 0.00 97 1013.2
20260509115017 16 0 0.0 0.0 0.00 0.00 0.00 97 1013.2
20260509114517 16 200 0.0 8.0 0.00 0.00 0.00 97 1013.2
20260509114017 16 205 4.8 4.8 0.00 0.00 0.00 97 1013.3
20260509113518 16 210 1.6 4.8 0.00 0.00 0.00 97 1013.4
20260509113018 16 202 3.2 4.8 0.00 0.00 0.00 97 1013.4
20260509112517 16 244 3.2 3.2 0.00 0.00 0.00 97 1013.3
20260509112018 16 237 1.6 3.2 0.00 0.00 0.00 97 1013.2
20260509111517 16 205 1.6 4.8 0.00 0.00 0.00 97 1013.2
20260509111017 16 191 0.0 6.4 0.00 0.00 0.00 97 1013.1
20260509110517 16 233 3.2 4.8 0.00 0.00 0.00 97 1013.1
20260509110017 16 236 1.6 4.8 0.00 0.00 0.00 97 1013.1
20260509105517 16 234 0.0 4.8 0.00 0.00 0.00 96 1013.3
20260509105017 16 196 3.2 4.8 0.00 0.00 0.00 96 1013.2
20260509104517 16 260 3.2 4.8 0.00 0.00 0.00 96 1013.0
20260509104017 16 230 1.6 4.8 0.00 0.00 0.00 96 1012.9
20260509103517 16 215 1.6 4.8 0.00 0.00 0.00 96 1012.8
20260509103017 16 0 0.0 0.0 0.00 0.00 0.00 96 1012.6
20260509102518 16 196 0.0 1.6 0.00 0.00 0.00 96 1012.5
20260509102017 16 222 0.0 1.6 0.00 0.00 0.00 96 1012.8
20260509101518 16 278 1.6 3.2 0.00 0.00 0.00 96 1012.8
20260509101017 16 0 1.6 0.0 0.00 0.00 0.00 96 1012.7
20260509100517 16 0 0.0 0.0 0.00 0.00 0.00 96 1012.6
20260509100017 16 0 0.0 0.0 0.00 0.00 0.00 96 1012.5
20260509095517 16 0 0.0 0.0 0.00 0.00 0.00 96 1012.2
20260509095017 16 0 0.0 0.0 0.00 0.00 0.00 96 1012.2
20260509094518 16 0 0.0 0.0 0.00 0.00 0.00 96 1012.0
20260509094018 16 0 0.0 0.0 0.00 0.00 0.00 96 1011.7
20260509093517 16 0 0.0 0.0 0.00 0.00 0.00 96 1011.8
20260509093018 16 0 0.0 0.0 0.00 0.00 0.00 96 1011.7
20260509092518 16 0 0.0 0.0 0.00 0.00 0.00 96 1011.6
20260509092017 16 0 0.0 0.0 0.00 0.00 0.00 96 1011.7
20260509091517 16 0 0.0 0.0 0.00 0.00 0.00 95 1011.8
20260509091017 16 232 0.0 1.6 0.00 0.00 0.00 95 1011.6
20260509090517 16 209 0.0 3.2 0.00 0.00 0.00 95 1011.7
20260509090017 16 243 1.6 3.2 0.00 0.00 0.00 95 1011.8
20260509085518 16 0 0.0 0.0 0.00 0.00 0.00 95 1011.7
20260509085017 16 0 0.0 0.0 0.00 0.00 0.00 95 1011.5
20260509084517 16 195 0.0 4.8 0.00 0.00 0.00 95 1012.1
20260509084017 16 227 1.6 1.6 0.00 0.00 0.00 95 1012.3
20260509083517 16 209 1.6 11.3 0.00 0.00 0.00 95 1012.5
20260509083017 16 198 9.7 8.0 0.00 0.00 0.00 95 1013.0
20260509082517 16 209 4.8 8.0 0.00 0.00 0.00 95 1013.1
20260509082017 16 234 3.2 4.8 0.00 0.00 0.00 95 1013.1
20260509081517 16 232 0.0 3.2 0.00 0.00 0.00 95 1013.2
20260509081017 16 237 3.2 3.2 0.00 0.00 0.00 95 1013.2
20260509080517 16 220 3.2 6.4 0.00 0.00 0.00 95 1013.4
20260509080017 16 0 0.0 0.0 0.00 0.00 0.00 95 1013.5
20260509075517 16 0 0.0 0.0 0.00 0.00 0.00 95 1013.4
20260509075017 16 0 0.0 0.0 0.00 0.00 0.00 95 1013.2
20260509074517 16 0 0.0 0.0 0.00 0.00 0.00 95 1013.3
20260509074017 15 0 0.0 0.0 0.00 0.00 0.00 95 1013.3
20260509073517 15 0 0.0 0.0 0.00 0.00 0.00 95 1013.3
20260509073017 15 0 0.0 0.0 0.00 0.00 0.00 95 1013.2
20260509072517 15 0 0.0 0.0 0.00 0.00 0.00 95 1013.1
20260509072018 15 0 0.0 0.0 0.00 0.00 0.00 95 1013.1
20260509071517 15 0 0.0 0.0 0.00 0.00 0.00 95 1013.1
20260509071017 15 0 0.0 0.0 0.00 0.00 0.00 95 1012.8
20260509070517 15 0 0.0 0.0 0.00 0.00 0.00 95 1012.7
20260509070017 15 0 0.0 0.0 0.00 0.00 0.00 95 1012.8
20260509065517 15 0 0.0 0.0 0.00 0.00 0.00 95 1012.7
20260509065017 15 0 0.0 0.0 0.00 0.00 0.00 95 1012.8
20260509064517 15 0 0.0 0.0 0.00 0.00 0.00 95 1013.0
20260509064017 15 0 0.0 0.0 0.00 0.00 0.00 95 1013.1
20260509063518 15 0 0.0 0.0 0.00 0.00 0.00 95 1013.1
20260509063018 15 0 0.0 0.0 0.00 0.00 0.00 95 1013.0
20260509062517 15 0 0.0 0.0 0.00 0.00 0.00 95 1012.8
20260509061517 15 0 0.0 0.0 0.00 0.00 0.00 95 1012.8
20260509061017 15 0 0.0 0.0 0.00 0.00 0.00 95 1012.8
20260509060517 14 0 0.0 0.0 0.00 0.00 0.00 95 1012.9
20260509060018 14 0 0.0 0.0 0.00 0.00 0.00 95 1013.1
20260509055517 15 0 0.0 0.0 0.00 0.00 0.00 95 1013.3
20260509055017 14 0 0.0 0.0 0.00 0.00 0.00 94 1013.3
20260509054518 15 0 0.0 0.0 0.00 0.00 0.00 94 1013.3
20260509054017 15 0 0.0 0.0 0.00 0.00 0.00 94 1013.4
20260509053518 15 0 0.0 0.0 0.00 0.00 0.00 94 1013.4
20260509053017 15 0 0.0 0.0 0.00 0.00 0.00 94 1013.3
20260509052517 15 0 0.0 0.0 0.00 0.00 0.00 94 1013.4
20260509052018 15 0 0.0 0.0 0.00 0.00 0.00 94 1013.5
20260509051517 15 0 0.0 0.0 0.00 0.00 0.00 94 1013.6
20260509051017 15 0 0.0 0.0 0.00 0.00 0.00 93 1013.6
20260509050517 15 0 0.0 0.0 0.00 0.00 0.00 93 1013.6
20260509050017 15 0 0.0 0.0 0.00 0.00 0.00 93 1013.7
20260509045517 15 0 0.0 0.0 0.00 0.05 0.00 93 1013.7
20260509045017 15 0 0.0 0.0 0.00 0.05 0.00 93 1013.7
20260509044517 15 0 0.0 0.0 0.00 0.05 0.00 92 1013.7
20260509044017 15 0 0.0 0.0 0.00 0.05 0.00 92 1013.8
20260509043517 15 0 0.0 0.0 0.00 0.05 0.00 92 1013.6
20260509043017 15 0 0.0 0.0 0.00 0.05 0.00 92 1013.8
20260509042517 15 0 0.0 0.0 0.00 0.05 0.00 91 1013.8
20260509042017 15 0 0.0 0.0 0.00 0.05 0.00 91 1013.7
20260509041517 15 0 0.0 0.0 0.00 0.05 0.00 91 1013.7
20260509041017 15 0 0.0 0.0 0.00 0.05 0.00 91 1013.6
20260509040517 15 0 0.0 0.0 0.00 0.05 0.00 91 1013.6
20260509040017 15 0 0.0 0.0 0.00 0.05 0.00 90 1013.6
20260509035517 15 0 0.0 0.0 0.00 0.05 0.00 90 1013.6
20260509035022 15 0 0.0 0.0 0.00 0.05 0.00 90 1013.6
20260509034517 15 0 0.0 0.0 0.00 0.05 0.00 90 1013.7
20260509034017 15 0 0.0 0.0 0.00 0.05 0.00 90 1013.7
20260509033517 15 0 0.0 0.0 0.00 0.05 0.00 90 1013.8
20260509033017 15 0 0.0 0.0 0.00 0.05 0.00 90 1014.1
20260509032517 15 0 0.0 0.0 0.00 0.05 0.00 90 1014.0
20260509032018 15 0 0.0 0.0 0.00 0.05 0.00 90 1013.8
20260509031518 15 0 0.0 0.0 0.00 0.05 0.00 90 1013.8
20260509031017 15 0 0.0 0.0 0.00 0.05 0.00 89 1013.7
20260509030518 15 0 0.0 0.0 0.00 0.05 0.00 89 1013.2
20260509030017 15 0 0.0 0.0 0.00 0.05 0.00 89 1013.3
20260509025517 15 0 0.0 0.0 0.00 0.05 0.00 89 1013.5
20260509025017 15 0 0.0 0.0 0.00 0.05 0.00 89 1013.6
20260509024517 15 0 0.0 0.0 0.00 0.05 0.00 89 1013.6
20260509024017 15 0 0.0 0.0 0.00 0.05 0.00 89 1013.6
20260509023518 15 0 0.0 0.0 0.00 0.05 0.00 89 1013.7
20260509023017 15 0 0.0 0.0 0.00 0.05 0.00 89 1013.9
20260509022517 15 0 0.0 0.0 0.00 0.05 0.00 89 1014.1
20260509022017 15 0 0.0 0.0 0.00 0.05 0.00 89 1014.0
20260509021517 16 0 0.0 0.0 0.00 0.05 0.00 89 1013.9
20260509021017 16 0 0.0 0.0 0.00 0.05 0.00 89 1014.0
20260509020519 16 0 0.0 0.0 0.00 0.05 0.00 88 1014.1
20260509020017 16 0 0.0 0.0 0.00 0.05 0.00 88 1014.1
20260509015517 16 0 0.0 0.0 0.00 0.05 0.00 88 1014.0
20260509015017 16 0 0.0 0.0 0.00 0.05 0.00 88 1013.9
20260509014517 16 0 0.0 0.0 0.00 0.05 0.00 87 1013.7
20260509014018 16 0 0.0 0.0 0.00 0.05 0.00 87 1013.7
20260509013517 16 0 0.0 0.0 0.00 0.05 0.00 87 1013.5
20260509013018 16 0 0.0 0.0 0.00 0.05 0.00 87 1013.5
20260509012517 16 0 0.0 0.0 0.00 0.05 0.00 87 1013.4
20260509012017 16 0 0.0 0.0 0.00 0.05 0.00 86 1013.4
20260509011518 16 0 0.0 0.0 0.00 0.05 0.00 86 1013.6
20260509011017 16 0 0.0 0.0 0.00 0.05 0.00 86 1013.8
20260509010517 16 0 0.0 0.0 0.00 0.05 0.00 86 1013.7
20260509010017 16 0 0.0 0.0 0.00 0.05 0.00 85 1013.8
20260509005517 16 0 0.0 0.0 0.00 0.05 0.00 85 1013.7
20260509005017 16 0 0.0 0.0 0.00 0.05 0.00 85 1013.7
20260509004517 16 0 0.0 0.0 0.00 0.05 0.00 84 1013.7
20260509004017 16 0 0.0 0.0 0.00 0.05 0.00 84 1013.7
20260509003517 16 0 0.0 0.0 0.00 0.05 0.00 84 1013.9
20260509003017 16 0 0.0 0.0 0.00 0.05 0.00 84 1013.8
20260509002518 17 0 0.0 0.0 0.00 0.05 0.00 83 1013.9
20260509002017 17 0 0.0 0.0 0.00 0.05 0.00 83 1013.9
20260509001517 17 0 0.0 0.0 0.00 0.05 0.00 83 1013.9
20260509001018 17 0 0.0 0.0 0.00 0.05 0.00 83 1013.8
20260509000517 17 0 0.0 0.0 0.00 0.05 0.00 82 1013.7
20260509000017 17 0 0.0 0.0 0.00 0.05 0.00 82 1013.9
20260508235517 17 0 0.0 0.0 0.00 0.05 0.00 82 1014.1
20260508235017 17 0 0.0 0.0 0.00 0.05 0.00 82 1014.1
20260508234517 17 0 0.0 0.0 0.00 0.05 0.00 81 1014.3
20260508234018 17 0 0.0 0.0 0.00 0.05 0.00 81 1014.6
20260508233517 17 0 0.0 0.0 0.00 0.05 0.00 81 1014.6
20260508233017 17 0 0.0 0.0 0.00 0.05 0.00 81 1014.6
20260508232517 17 0 0.0 0.0 0.00 0.05 0.00 81 1014.7
20260508232018 17 0 0.0 0.0 0.00 0.05 0.00 81 1014.8
20260508231517 17 0 0.0 0.0 0.00 0.05 0.00 81 1014.9
20260508231017 17 0 0.0 0.0 0.00 0.05 0.00 81 1015.1
20260508230517 17 0 0.0 0.0 0.00 0.05 0.00 81 1015.1
20260508230017 17 241 0.0 0.0 0.00 0.05 0.00 81 1015.0
20260508225517 17 285 0.0 9.7 0.00 0.05 0.00 80 1015.0